Location: Amberg
(48.0613°N, 10.6820°E)
Time: 23:48:23
(UTC+00:00)

SJ-7 - Pass Details

Date: 18 November 2025
Orbit: 500 x 523 km, 97.7° (Epoch: 05 December)

Event Time Altitude Azimuth Distance (km) Brightness Sun altitude
Rises 17:28:20 0° 161° (SSE) 2,584 7.7 -18.5°
Reaches altitude 10° 17:30:24 10° 160° (SSE) 1,704 6.7 -18.9°
Maximum altitude 17:34:04 76° 75° (ENE) 523 3.9 -19.5°
Drops below altitude 10° 17:37:45 10° 350° (N) 1,720 6.9 -20.1°
Sets 17:39:51 0° 349° (NNW) 2,611 7.8 -20.4°
